Location: Azul
(36.7830°S, 59.8500°W)
Time: 02:42:20
(UTC-03:00)

ISS - Pass Details

Date: 27 November 2020
Orbit: 418 x 420 km, 51.6° (Epoch: 04 December)

Event Time Altitude Azimuth Distance (km) Brightness Sun altitude
Exits shadow 03:14:54 16° 63° (ENE) 1,212 -1.3 -22.3°
Drops below altitude 10° 03:16:34 10° 92° (E) 1,521 -0.4 -22.1°
Sets 03:19:15 0° 114° (ESE) 2,396 1.1 -21.8°
